Skip Page Navigation
NASA JPL Caltech
NASA Logo - Jet Propulsion Laboratory + View the NASA Portal
+ Near-Earth Object (NEO) Program
Search JPL
JPL Home Earth Solar System Stars & Galaxies Technology
JPL Solar System Dynamics
BODIES ORBITS EPHEMERIDES TOOLS PHYSICAL DATA DISCOVERY FAQ SITE MAP
JPL Small-Body Database Browser
Search: [ help ]  
7744 (1986 QA1)
Classification: Main-belt Asteroid          SPK-ID: 2007744
Ephemeris | Orbit Diagram | Orbital Elements | Physical Parameters | Discovery Circumstances | Close-Approach Data ]

[ show orbit diagram ]
Orbital Elements at Epoch 2457000.5 (2014-Dec-09.0) TDB
Reference: JPL 14 (heliocentric ecliptic J2000)
 Element Value Uncertainty (1-sigma)   Units 
e .03204913252403332 6.3113e-08  
a 2.659028411232889 1.8792e-08 AU
q 2.573808857296116 1.6648e-07 AU
i 3.3182183329982 5.8587e-06 deg
node 51.4292184359109 0.00010568 deg
peri 118.8547799379555 0.00014071 deg
M 353.7774490946398 9.0961e-05 deg
tp 2457027.874667374865
(2015-Jan-05.37466737)
0.00040014 JED
period 1583.736381563734
4.34
1.6789e-05
4.597e-08
d
yr
n .2273105576096868 2.4097e-09 deg/d
Q 2.744247965169661 1.9394e-08 AU
  Orbit Determination Parameters
   # obs. used (total)      1183  
   data-arc span      10486 days (28.71 yr)  
   first obs. used      1986-08-26  
   last obs. used      2015-05-12  
   planetary ephem.      DE431  
   SB-pert. ephem.      SB431-BIG16  
   condition code      0  
   fit RMS      .49826  
   data source      ORB  
   producer      Otto Matic  
   solution date      2015-Jun-04 15:59:22  

Additional Information
 Earth MOID = 1.58122 AU 
 T_jup = 3.383 
[ show covariance matrix ]

Ephemeris | Orbit Diagram | Orbital Elements | Physical Parameters | Discovery Circumstances | Close-Approach Data ]

Physical Parameter Table
Parameter Symbol Value Units Sigma Reference Notes
absolute magnitude H 13.6 mag n/a MPO337321  

7744 (1986 QA1)          Discovered 1986-Aug-26 by Debehogne, H. at La Silla
Reference: DISCOVERY.DBLast Updated: 2003-08-29

[ show close-approach data ]
Alternate Designations
 1986 QA1 = 1995 SB43 
Ephemeris | Orbit Diagram | Orbital Elements | Physical Parameters | Discovery Circumstances | Close-Approach Data ]
ABOUT SSD CREDITS/AWARDS PRIVACY/COPYRIGHT GLOSSARY LINKS
FirstGov 2015-Jul-03 02:36 UT
(server date/time)  
NASA Home Page
Site Manager:   Ryan S. Park
Webmaster  Alan B. Chamberlin